Wetbulb
60.56 57.61 55.48 53.70 48.58 46.63 44.88 47.02 50.82 52.71 52.98 55.17 55.04 55.72 56.25 57.25 56.68 51.40 66.20 70.11 72.14 74.21 75.87 76.59 77.11 76.94 76.84 76.36 75.99 75.74 75.49 75.76 75.89 76.09 76.06 76.08 76.11 76.21 75.86 75.56 75.07 73.74 72.68 71.77 70.67 69.74 69.30 68.88 68.40
58.87 57.04 54.36 48.01 43.68 41.69 45.61 52.82 51.40 52.84 55.06 56.00 53.41 54.58 55.97 56.95 62.05 65.52 66.57 70.37 72.81 74.47 75.65 75.53 76.86 76.91 76.66 76.29 75.81 75.51 75.49 75.64 75.86 76.11 76.13 76.03 75.98 75.76 75.07 74.99 74.49 72.94 72.05 70.91 70.26 69.58 69.08 68.62 68.44
53.32 57.05 49.47 42.73 40.79 41.90 45.46 53.57 49.73 52.00 55.44 54.85 51.79 55.88 56.74 57.54 62.34 65.89 67.14 71.27 72.74 73.93 75.26 75.40 76.89 76.55 76.64 76.21 75.76 75.61 75.56 75.81 75.96 76.08 76.20 76.00 75.77 75.57 75.35 74.96 74.29 72.89 71.71 70.70 70.23 69.53 69.15 68.91 68.10
51.23 51.77 48.72 41.58 39.61 43.57 48.62 47.98 51.03 51.73 55.03 55.70 53.87 52.92 55.96 58.93 59.65 64.77 70.59 71.51 71.91 73.33 74.73 76.24 76.63 76.41 76.51 76.14 75.73 75.58 75.70 75.81 75.96 75.91 75.90 75.50 75.14 75.29 75.28 74.83 74.37 73.50 71.68 70.83 70.36 69.79 69.41 68.98 68.04
50.81 47.34 40.89 38.92 42.20 44.93 48.35 50.19 49.88 51.46 53.94 53.75 54.06 52.53 53.92 57.75 60.09 68.97 69.31 70.99 70.66 72.04 73.65 76.16 76.47 76.38 76.36 76.11 75.78 75.80 75.70 75.60 75.92 75.72 75.43 75.26 74.98 74.87 75.06 74.68 73.85 72.92 71.73 71.05 70.56 69.96 70.17 69.97 69.27
45.24 46.15 37.16 38.26 41.41 46.73 48.46 49.51 49.69 50.65 54.85 55.31 53.18 52.95 53.27 57.80 57.83 66.51 69.29 69.17 70.14 71.09 73.90 75.43 76.52 76.33 76.03 75.96 75.68 75.50 75.46 75.44 75.66 75.83 75.76 75.48 75.06 74.92 74.72 74.53 73.94 73.44 72.79 72.10 71.26 71.07 70.97 70.35 69.69
42.65 39.92 37.64 37.19 42.33 44.35 47.90 50.06 48.29 49.78 50.44 52.55 56.02 51.95 53.31 55.33 56.67 65.23 69.32 68.53 68.72 70.94 73.86 74.86 75.24 75.96 76.33 75.70 75.37 75.46 75.20 75.33 75.31 75.42 75.56 75.39 75.20 74.93 74.93 74.62 74.33 74.07 73.30 72.80 72.63 71.99 71.30 70.61 70.41
44.96 40.80 37.82 38.63 39.43 42.18 47.69 47.70 46.79 47.35 49.30 54.94 57.77 52.23 50.58 54.78 57.45 65.51 67.39 67.68 67.68 71.10 72.77 74.03 74.34 74.99 74.89 74.76 75.79 75.40 75.40 75.33 75.08 75.10 75.27 75.19 75.23 74.88 74.93 73.75 74.02 74.06 73.62 73.05 72.75 72.58 72.11 71.29 70.83
45.44 36.58 34.86 38.60 40.71 42.73 45.67 45.65 48.88 51.07 50.46 51.82 54.68 55.79 57.65 57.51 57.99 67.27 66.78 67.47 69.04 70.15 71.10 73.25 73.27 73.75 73.70 74.29 74.97 75.45 75.63 75.56 75.28 75.18 75.20 74.05 73.10 73.04 73.03 73.37 73.45 74.05 73.86 73.52 73.12 72.75 72.32 71.75 71.43
40.74 35.45 37.53 42.36 43.16 43.18 44.77 45.01 46.53 48.23 48.31 48.93 50.64 54.33 57.61 57.50 55.21 64.07 65.83 65.91 67.41 68.48 69.74 72.32 72.76 72.65 73.31 74.14 74.59 74.24 74.33 74.12 73.49 73.53 73.39 72.24 71.13 71.31 72.21 73.04 73.85 74.18 73.98 73.68 73.46 72.91 72.59 72.05 67.94
39.43 37.56 41.09 42.97 44.81 45.26 44.88 45.12 47.31 46.97 45.90 47.88 48.81 51.49 54.96 55.81 53.96 58.58 64.79 67.17 67.43 68.82 69.78 71.02 71.90 72.40 72.42 72.94 73.63 73.25 74.33 73.97 73.85 73.33 73.14 70.38 70.52 70.40 71.40 69.61 70.90 70.24 72.56 70.35 71.47 70.63 70.15 68.93 67.83
36.49 42.03 42.64 43.95 45.34 43.67 44.28 46.49 45.57 46.51 47.08 49.97 51.19 53.17 55.22 54.96 53.61 53.89 56.22 63.51 67.34 68.60 68.97 70.10 71.37 71.44 70.94 72.43 72.58 72.30 72.77 72.76 72.69 72.82 71.63 69.91 69.00 68.19 67.99 67.80 67.54 68.08 68.44 69.00 68.66 68.73 68.55 68.26 68.06
37.66 40.26 42.67 44.45 43.83 43.18 45.37 44.18 44.51 45.23 48.41 49.69 52.79 53.69 53.64 53.08 53.74 53.78 56.77 59.17 63.40 66.61 68.03 68.78 69.62 70.49 69.73 71.08 70.88 71.15 71.45 71.78 71.86 71.47 71.53 70.77 68.19 67.35 66.29 66.84 66.77 66.86 67.47 68.17 67.85 67.81 67.45 67.22 67.29
40.55 40.44 41.45 42.28 42.51 41.95 41.97 43.63 43.66 45.62 48.20 48.82 48.88 49.10 50.44 53.53 53.48 52.36 55.80 59.93 62.05 65.19 67.78 68.20 68.65 69.22 69.38 70.41 70.36 70.25 70.55 70.36 69.07 69.93 70.45 70.57 69.09 66.66 65.71 65.39 65.44 66.70 67.27 67.94 67.94 67.51 67.09 66.55 66.29
40.75 37.50 39.73 39.58 40.98 41.19 42.96 41.31 42.43 45.83 47.35 47.12 47.44 48.28 49.13 51.35 53.41 53.31 54.89 58.87 61.07 64.41 66.88 67.67 68.29 68.56 68.24 69.86 69.53 69.07 69.17 68.63 68.63 68.86 68.64 69.88 68.98 67.20 65.66 65.35 65.89 66.72 67.58 67.95 68.27 68.12 67.81 66.64 66.53
36.75 34.75 31.09 37.84 40.87 42.51 41.68 35.95 43.26 45.78 45.19 45.27 45.87 47.04 48.63 49.71 52.49 52.75 53.95 55.99 58.52 61.69 66.34 67.41 69.01 68.14 68.21 69.10 69.90 69.70 69.42 69.42 68.66 68.73 68.94 68.95 69.65 69.26 67.27 66.22 65.97 67.60 67.76 67.76 67.20 66.86 65.55 65.81 65.87
32.88 28.88 31.45 36.37 40.76 41.05 40.18 36.79 42.32 44.66 43.85 43.71 44.58 45.20 47.00 47.19 48.18 49.06 52.38 53.40 54.55 59.26 64.46 66.71 67.92 68.11 68.75 69.21 70.53 70.29 69.89 69.10 69.53 69.09 69.33 69.36 69.76 69.87 69.62 69.43 69.30 67.95 67.28 66.54 66.00 65.17 63.58 62.40 62.45
30.10 30.92 33.62 34.35 39.18 39.49 38.19 37.58 40.81 43.21 42.88 43.30 43.17 43.82 44.80 46.40 47.88 49.04 50.19 52.70 53.61 57.08 59.23 64.49 65.66 66.80 67.17 68.55 67.88 67.81 67.77 68.03 69.02 69.38 69.38 70.12 70.09 70.56 69.38 68.95 68.87 69.25 68.00 67.37 66.17 64.75 64.14 63.43 62.69
36.95 34.93 34.44 38.14 41.46 38.90 37.87 37.90 39.82 41.88 41.59 41.66 42.77 42.88 43.67 44.76 47.32 49.76 50.59 50.97 53.53 56.11 56.54 60.24 63.11 63.50 65.49 65.74 65.15 64.83 65.90 65.67 66.26 67.13 68.05 68.16 68.80 70.50 70.48 70.24 69.55 68.72 67.81 67.04 66.38 64.92 64.26 63.15 63.82
37.29 35.27 35.00 38.42 40.90 38.37 37.98 37.30 39.66 40.74 41.02 41.83 42.98 43.43 43.69 43.57 45.03 47.94 49.66 52.65 54.59 55.93 56.41 57.11 60.98 63.15 64.33 63.44 61.09 60.83 61.24 64.60 65.43 66.73 67.40 67.20 67.48 67.22 68.60 69.81 69.43 68.82 67.88 67.11 66.51 64.86 63.67 63.32 63.87
36.99 34.88 35.35 36.08 39.01 38.89 36.39 34.40 37.38 40.51 41.44 43.20 43.67 44.20 44.38 44.31 44.65 45.02 48.07 51.46 53.52 54.65 55.46 56.45 58.35 60.92 61.25 60.13 57.50 56.86 57.92 58.32 60.67 62.49 65.10 67.74 67.87 66.00 64.56 65.30 67.92 69.60 67.99 67.88 65.77 65.68 64.33 63.19 63.84
33.36 39.45 39.30 38.03 34.42 29.57 36.58 29.82 33.75 37.91 39.05 40.98 42.32 42.23 43.00 43.80 44.85 44.90 46.40 49.26 52.87 55.10 55.29 56.58 57.39 57.64 58.62 58.32 56.80 56.36 56.38 56.48 55.60 56.33 57.56 61.28 67.52 68.10 66.23 66.02 67.70 69.21 68.28 67.34 66.15 65.88 65.24 63.94 62.68
37.13 41.04 38.57 38.02 33.32 29.09 31.86 27.14 31.76 36.82 36.57 39.68 40.58 41.94 43.04 43.72 44.21 45.45 46.02 48.75 52.53 54.43 55.35 56.27 55.48 54.54 56.24 57.29 56.66 55.69 54.83 55.19 55.97 57.11 57.47 56.82 58.20 60.78 63.24 67.01 67.79 67.72 67.20 67.00 66.47 65.71 65.04 64.92 63.79
42.21 38.34 35.90 32.32 29.72 25.04 31.60 30.22 31.76 33.50 37.25 38.60 41.17 43.16 44.89 45.34 45.27 46.97 49.28 48.57 51.64 54.09 52.76 52.27 52.06 51.95 52.96 55.43 55.69 55.59 55.09 55.14 55.23 55.46 55.92 56.08 57.35 59.19 60.26 62.42 66.04 67.27 66.87 67.00 66.89 66.26 65.36 65.20 65.23
37.86 30.73 24.02 23.21 23.41 26.72 33.52 29.98 32.80 37.05 40.28 41.13 41.17 43.15 44.19 44.10 45.50 47.73 46.93 48.75 51.95 51.95 51.67 51.83 51.53 51.01 51.82 52.22 53.43 53.89 53.84 53.58 54.21 54.54 54.85 54.66 55.45 56.38 56.88 57.97 60.12 63.13 66.87 67.60 67.59 66.47 66.15 66.04 65.68
36.17 34.23 27.36 21.58 21.50 27.49 33.82 27.57 32.50 40.01 42.29 42.91 44.01 43.98 44.64 44.08 44.85 47.16 48.36 49.45 50.25 49.16 49.29 51.41 50.81 50.55 51.59 52.43 52.22 52.73 52.90 52.94 53.21 53.82 54.95 55.87 56.49 57.24 58.58 58.52 58.62 59.91 63.10 65.37 66.78 66.03 66.25 66.66 66.19
37.32 33.56 36.92 31.15 29.71 26.32 28.74 33.07 38.83 41.25 41.37 42.84 43.30 43.90 43.14 43.92 44.26 46.76 47.62 48.37 49.74 50.51 51.31 51.83 51.83 50.69 52.26 53.29 52.81 52.94 53.47 53.21 53.98 54.63 54.84 55.65 55.87 57.45 57.67 58.94 59.45 60.18 62.10 63.85 64.39 65.58 65.61 67.13 67.06
40.43 41.42 30.48 30.11 26.06 23.47 27.31 29.41 30.00 35.35 37.85 40.88 41.54 41.53 43.01 43.87 43.77 44.76 45.97 48.25 49.81 48.96 48.18 48.64 51.04 51.70 52.14 53.26 53.69 53.81 54.74 55.40 55.38 54.62 54.54 54.56 55.03 56.12 57.30 57.53 58.01 59.02 59.85 61.07 61.47 62.14 64.01 64.87 64.91
37.33 35.48 36.82 35.50 32.65 27.67 25.75 27.08 34.98 36.90 38.08 39.23 40.76 42.75 43.67 44.05 44.40 44.44 45.63 46.77 48.28 48.06 49.11 48.82 49.49 50.70 50.47 51.74 53.00 53.34 54.29 55.67 55.40 54.30 54.35 54.33 54.48 55.46 56.16 57.14 57.63 58.07 58.50 58.81 58.85 59.87 60.70 61.78 62.71
40.86 37.07 37.04 31.33 29.71 32.62 30.86 27.14 39.89 38.66 40.66 42.01 42.39 45.03 46.20 46.78 46.24 46.36 45.48 47.43 48.45 48.26 48.26 47.10 50.28 50.83 51.80 52.40 52.70 53.77 54.63 55.41 54.97 55.00 54.70 54.71 54.77 55.29 56.46 57.08 57.94 58.96 59.51 59.16 59.31 59.50 60.52 61.36 61.45
MSLP
1009.22 1008.78 1008.72 1008.77 1010.04 1010.26 1009.50 1008.53 1007.22 1006.58 1006.23 1005.70 1004.98 1004.79 1004.89 1005.27 1005.58 1005.87 1005.23 1005.33 1005.44 1006.61 1007.06 1007.41 1007.99 1008.16 1008.74 1008.92 1009.29 1009.49 1009.85 1010.34 1010.69 1011.09 1011.40 1011.85 1012.20 1012.42 1012.56 1012.79 1012.97 1013.11 1013.41 1013.65 1013.78 1013.89 1013.99 1014.00 1014.17
1009.36 1008.81 1009.11 1009.89 1010.92 1010.79 1009.47 1008.18 1007.19 1006.27 1006.11 1005.50 1004.98 1004.76 1004.79 1005.33 1005.07 1005.15 1005.59 1005.68 1005.72 1006.22 1006.86 1007.33 1007.43 1008.07 1008.61 1008.92 1009.33 1009.78 1010.04 1010.51 1010.85 1011.16 1011.50 1011.90 1012.17 1012.44 1012.67 1013.00 1013.12 1013.22 1013.36 1013.61 1013.72 1013.79 1013.86 1013.91 1014.01
1009.40 1009.41 1010.29 1011.06 1011.41 1011.03 1009.41 1007.85 1007.26 1005.84 1005.73 1005.22 1004.91 1004.77 1004.85 1005.08 1005.16 1005.02 1004.76 1005.54 1006.04 1006.50 1006.82 1007.32 1007.60 1007.70 1008.33 1009.02 1009.37 1009.82 1010.27 1010.56 1010.91 1011.21 1011.53 1011.98 1012.23 1012.42 1012.73 1012.98 1013.15 1013.29 1013.41 1013.65 1013.81 1013.90 1013.93 1013.97 1014.02
1009.85 1010.35 1011.24 1011.56 1011.25 1010.29 1009.09 1007.85 1007.03 1006.16 1005.97 1005.20 1004.99 1005.10 1005.10 1005.03 1004.93 1004.66 1005.10 1005.79 1006.51 1007.03 1007.20 1007.47 1008.05 1008.05 1008.32 1008.93 1009.51 1009.87 1010.25 1010.60 1010.96 1011.23 1011.55 1012.06 1012.42 1012.68 1012.92 1013.17 1013.24 1013.32 1013.41 1013.59 1013.77 1013.85 1013.95 1013.97 1013.97
1010.47 1011.36 1011.99 1012.13 1011.10 1009.76 1008.98 1008.02 1007.28 1006.28 1005.76 1005.90 1005.19 1005.33 1005.12 1004.94 1004.95 1005.08 1005.39 1005.96 1006.34 1006.96 1007.39 1007.52 1007.91 1008.28 1008.33 1008.85 1009.38 1009.79 1010.12 1010.52 1010.91 1011.41 1011.78 1011.99 1012.35 1012.72 1012.97 1013.18 1013.32 1013.39 1013.49 1013.63 1013.79 1013.90 1013.91 1014.02 1013.99
1011.29 1012.08 1012.84 1012.40 1011.31 1009.60 1008.97 1008.21 1007.38 1006.84 1005.45 1005.61 1005.61 1005.46 1005.06 1004.84 1004.98 1005.22 1005.56 1006.09 1006.70 1007.00 1007.26 1007.70 1008.18 1008.44 1008.53 1008.59 1009.12 1009.62 1010.08 1010.38 1010.73 1011.17 1011.81 1012.19 1012.50 1012.66 1012.88 1013.13 1013.27 1013.35 1013.47 1013.64 1013.73 1013.86 1013.97 1013.96 1013.96
1011.71 1012.73 1012.85 1012.31 1011.45 1009.93 1008.64 1008.12 1007.61 1006.78 1005.99 1004.83 1005.41 1005.51 1005.20 1005.22 1004.99 1004.71 1005.30 1006.30 1006.99 1007.72 1008.18 1008.17 1008.56 1008.71 1008.83 1008.90 1009.05 1009.69 1010.20 1010.53 1010.67 1010.91 1011.34 1011.98 1012.30 1012.62 1012.82 1013.04 1013.19 1013.20 1013.23 1013.37 1013.54 1013.73 1013.81 1013.96 1014.00
1011.58 1012.76 1012.94 1012.06 1011.44 1009.82 1008.73 1008.30 1007.81 1007.29 1006.57 1005.34 1004.80 1005.18 1005.10 1005.08 1005.05 1004.91 1005.40 1006.29 1006.98 1007.67 1008.18 1008.46 1008.70 1008.94 1009.19 1009.30 1009.29 1009.54 1010.27 1010.56 1010.80 1010.91 1011.05 1011.48 1011.99 1012.24 1012.60 1012.88 1013.00 1013.03 1013.13 1013.21 1013.32 1013.46 1013.61 1013.78 1013.91
1011.42 1012.61 1012.72 1011.88 1011.38 1009.69 1008.93 1008.59 1007.94 1007.05 1006.71 1005.87 1004.90 1004.63 1004.21 1004.89 1005.55 1005.34 1006.05 1006.73 1007.40 1007.73 1008.24 1008.51 1008.73 1008.98 1009.49 1009.55 1009.70 1009.69 1010.03 1010.70 1010.96 1011.28 1011.13 1011.37 1011.69 1011.99 1012.25 1012.55 1012.64 1012.72 1012.77 1012.94 1013.17 1013.32 1013.49 1013.76 1013.81
1011.48 1012.10 1011.77 1011.00 1010.52 1009.80 1009.24 1008.89 1008.38 1007.47 1006.61 1005.91 1005.35 1004.97 1004.75 1004.66 1005.19 1005.76 1006.23 1006.76 1006.95 1007.41 1007.91 1008.46 1008.67 1008.95 1009.35 1009.67 1009.90 1010.11 1010.00 1010.62 1011.18 1011.39 1011.56 1011.40 1011.72 1011.77 1012.00 1012.29 1012.44 1012.45 1012.52 1012.61 1012.86 1013.23 1013.47 1013.50 1013.77
1011.31 1011.51 1011.01 1010.46 1010.14 1009.60 1009.00 1008.76 1008.30 1007.56 1006.92 1006.13 1005.58 1005.20 1005.25 1005.30 1005.41 1005.58 1005.98 1005.80 1005.81 1006.63 1007.22 1007.92 1008.51 1008.85 1009.10 1009.59 1009.80 1010.22 1010.22 1010.39 1010.91 1011.35 1011.66 1011.75 1011.68 1011.91 1011.90 1012.18 1012.39 1012.50 1012.46 1012.57 1012.66 1013.09 1013.40 1013.41 1013.58
1011.17 1010.85 1010.63 1009.90 1009.35 1009.37 1008.84 1008.33 1007.97 1007.58 1006.74 1006.20 1005.78 1005.24 1005.06 1005.31 1005.40 1005.63 1005.62 1005.90 1006.23 1006.65 1006.53 1007.22 1008.12 1008.59 1008.67 1009.06 1009.62 1009.91 1010.43 1010.23 1010.43 1010.87 1011.40 1011.80 1011.91 1011.95 1011.97 1012.03 1012.22 1012.35 1012.40 1012.56 1012.67 1013.02 1013.28 1013.31 1013.26
1010.74 1010.47 1010.11 1009.61 1009.41 1009.16 1008.54 1008.07 1007.41 1006.91 1006.54 1005.90 1005.49 1005.09 1005.35 1005.71 1005.43 1005.39 1005.25 1005.56 1006.09 1006.42 1006.56 1007.02 1007.59 1008.28 1008.43 1008.56 1009.20 1009.70 1009.93 1010.22 1010.05 1010.52 1010.96 1011.25 1011.65 1012.02 1011.88 1011.93 1012.08 1012.18 1012.25 1012.39 1012.73 1012.88 1013.20 1013.22 1013.11
1010.50 1010.31 1009.93 1009.34 1008.90 1008.70 1008.48 1007.56 1007.22 1006.67 1006.42 1006.29 1005.77 1005.34 1005.36 1005.67 1005.82 1005.65 1005.42 1005.59 1005.89 1005.89 1006.29 1006.62 1007.11 1007.58 1008.03 1007.78 1008.34 1008.69 1009.06 1009.47 1009.98 1010.10 1010.36 1010.84 1010.93 1011.35 1011.94 1011.80 1011.96 1012.04 1011.93 1012.00 1012.30 1012.61 1012.81 1012.97 1013.00
1010.53 1010.55 1010.03 1009.54 1008.97 1008.60 1008.04 1007.53 1006.84 1006.44 1006.68 1006.48 1006.15 1005.75 1005.25 1005.28 1005.47 1005.73 1005.22 1005.24 1005.15 1005.33 1005.84 1006.22 1006.70 1007.35 1007.36 1007.36 1007.70 1008.14 1008.68 1009.53 1010.59 1009.92 1009.86 1010.21 1010.61 1010.78 1011.34 1011.59 1011.47 1011.66 1011.63 1011.64 1011.97 1012.26 1012.32 1012.64 1012.70
1011.03 1011.06 1010.68 1009.75 1009.07 1008.38 1008.37 1007.53 1007.21 1006.59 1006.44 1006.26 1006.23 1006.11 1005.82 1005.25 1005.06 1005.16 1005.15 1005.03 1004.73 1005.15 1005.55 1005.59 1005.98 1006.63 1006.85 1007.07 1007.23 1007.74 1007.95 1008.11 1009.97 1011.34 1010.36 1009.90 1009.86 1010.61 1010.63 1011.47 1011.28 1011.22 1011.70 1011.63 1011.88 1012.14 1012.29 1012.37 1012.37
1012.12 1011.88 1011.08 1010.14 1008.89 1008.51 1008.43 1007.91 1007.56 1007.23 1007.34 1006.82 1006.23 1006.02 1005.85 1005.40 1005.05 1004.66 1004.68 1004.77 1004.88 1004.74 1005.02 1005.27 1005.49 1005.77 1006.08 1006.47 1006.76 1007.20 1007.55 1008.32 1009.32 1008.56 1009.52 1010.43 1009.97 1009.71 1010.55 1010.52 1010.98 1010.72 1011.82 1011.52 1011.87 1012.02 1012.16 1012.12 1011.98
1012.43 1012.04 1011.28 1010.52 1009.11 1008.63 1008.35 1008.12 1007.85 1007.29 1007.16 1006.82 1006.48 1005.89 1006.10 1005.90 1005.20 1004.52 1004.34 1004.41 1004.64 1004.84 1004.89 1005.01 1005.24 1005.54 1005.91 1006.38 1006.70 1007.11 1007.53 1007.66 1007.81 1008.21 1008.64 1008.51 1009.95 1009.48 1010.13 1010.09 1011.14 1010.53 1011.59 1011.53 1011.69 1011.84 1011.91 1011.89 1011.73
1011.97 1011.92 1011.40 1010.21 1009.09 1009.14 1008.51 1008.11 1007.72 1007.32 1006.99 1006.88 1006.65 1006.48 1005.98 1005.59 1005.09 1004.77 1004.42 1004.29 1004.72 1005.04 1005.01 1005.05 1005.28 1005.80 1006.05 1006.45 1006.99 1007.39 1007.71 1007.70 1007.81 1008.06 1008.11 1008.77 1008.42 1007.68 1008.83 1009.49 1010.86 1010.44 1011.47 1011.09 1011.55 1011.53 1011.81 1011.90 1011.76
1011.60 1011.56 1010.96 1010.00 1009.07 1009.10 1008.25 1007.93 1007.61 1007.20 1006.88 1006.73 1006.70 1006.46 1006.12 1005.79 1005.27 1004.77 1004.66 1004.61 1004.55 1004.65 1004.91 1005.30 1005.32 1005.38 1005.76 1006.29 1006.91 1007.16 1007.41 1007.67 1007.85 1008.17 1008.40 1008.35 1007.99 1007.76 1007.64 1007.75 1009.11 1010.74 1011.53 1011.17 1011.80 1011.23 1011.66 1011.72 1011.73
1010.59 1010.73 1010.30 1009.97 1009.03 1008.70 1008.40 1007.99 1007.52 1007.00 1006.68 1006.37 1006.03 1005.81 1005.66 1005.53 1005.26 1004.61 1004.70 1004.65 1004.68 1004.65 1004.62 1004.80 1005.02 1005.23 1005.54 1006.00 1006.57 1007.10 1007.53 1007.93 1008.05 1007.97 1007.84 1007.70 1007.74 1007.73 1007.96 1008.41 1008.55 1009.39 1010.64 1011.72 1011.70 1010.88 1011.26 1011.56 1011.55
1009.85 1009.44 1009.41 1009.53 1009.60 1009.38 1008.72 1007.34 1007.55 1007.06 1006.63 1006.29 1005.79 1005.66 1005.23 1004.88 1004.45 1004.25 1004.19 1004.35 1004.21 1004.29 1004.53 1004.55 1004.81 1005.02 1005.22 1005.47 1006.20 1006.66 1007.20 1007.75 1007.59 1007.79 1008.09 1007.85 1007.74 1007.87 1008.29 1008.82 1009.20 1009.04 1009.58 1010.97 1010.32 1010.32 1010.83 1010.93 1011.60
1008.69 1008.50 1009.10 1009.31 1009.54 1009.54 1009.45 1008.95 1007.13 1006.74 1006.49 1005.78 1005.50 1005.09 1004.61 1004.28 1004.07 1003.73 1003.51 1003.26 1003.10 1003.58 1003.75 1004.18 1004.40 1004.93 1005.24 1005.36 1005.91 1006.60 1007.10 1007.17 1007.46 1007.60 1007.44 1007.57 1008.31 1008.45 1008.84 1008.98 1008.96 1009.36 1010.36 1008.95 1008.85 1009.40 1010.85 1010.56 1011.14
1008.00 1008.47 1008.92 1009.37 1009.99 1009.86 1009.43 1009.02 1007.33 1006.97 1005.99 1005.17 1004.55 1004.26 1004.03 1003.96 1003.78 1003.54 1002.85 1002.20 1002.26 1002.74 1003.53 1003.99 1004.28 1004.65 1004.95 1005.09 1005.56 1006.04 1006.58 1006.87 1007.09 1007.22 1007.45 1007.60 1007.63 1007.73 1008.21 1008.31 1008.53 1008.76 1008.18 1007.91 1008.48 1008.93 1009.45 1010.17 1010.56
1007.87 1008.90 1010.20 1010.37 1010.66 1009.43 1008.94 1008.35 1007.00 1006.28 1005.47 1004.84 1004.36 1003.97 1003.52 1003.53 1003.31 1002.85 1002.40 1002.22 1001.91 1001.93 1002.82 1003.43 1003.59 1004.26 1004.71 1004.69 1005.03 1005.55 1006.16 1006.69 1007.02 1007.25 1007.44 1007.52 1007.47 1007.39 1007.53 1007.91 1008.04 1008.19 1007.95 1008.03 1007.88 1008.28 1008.59 1009.23 1009.81
1007.52 1008.49 1009.99 1009.94 1010.45 1009.67 1009.30 1007.92 1006.61 1005.89 1005.16 1004.53 1004.22 1004.02 1003.59 1003.50 1002.77 1002.46 1002.43 1002.66 1002.43 1003.15 1003.07 1002.79 1003.38 1004.09 1004.28 1004.29 1004.68 1005.29 1005.76 1006.22 1006.51 1006.76 1006.99 1007.09 1007.22 1007.16 1006.99 1007.10 1007.40 1007.58 1007.73 1007.91 1007.56 1007.28 1007.62 1008.11 1008.82
1007.33 1008.12 1008.63 1009.64 1010.10 1009.73 1009.14 1007.91 1006.64 1005.82 1005.84 1005.31 1005.15 1004.58 1004.07 1003.18 1002.86 1002.07 1002.16 1002.48 1002.22 1002.89 1002.88 1003.14 1003.48 1003.93 1003.87 1003.93 1004.26 1004.83 1005.20 1005.73 1005.96 1006.07 1006.34 1006.58 1006.61 1006.72 1006.82 1006.92 1007.08 1007.12 1007.29 1007.50 1007.76 1007.74 1007.76 1007.70 1007.99
1007.08 1007.88 1009.20 1010.46 1010.95 1010.71 1009.26 1008.55 1007.53 1006.83 1006.46 1005.92 1005.59 1005.40 1005.14 1004.34 1003.61 1002.16 1001.99 1002.00 1001.96 1002.24 1003.03 1003.40 1003.46 1002.96 1003.03 1003.52 1003.76 1004.04 1004.53 1004.89 1005.19 1005.56 1006.11 1006.25 1006.37 1006.63 1006.73 1006.92 1007.11 1007.21 1007.22 1007.23 1007.23 1007.52 1007.55 1007.52 1007.50
1007.81 1008.46 1009.90 1011.16 1011.78 1011.27 1010.33 1008.31 1007.08 1006.74 1006.43 1006.03 1005.68 1005.29 1005.11 1005.04 1004.55 1003.29 1002.38 1002.34 1002.10 1002.16 1002.26 1002.84 1003.36 1003.49 1003.07 1003.07 1003.08 1003.58 1003.99 1004.34 1004.86 1005.29 1005.38 1005.65 1005.74 1005.99 1006.25 1006.30 1006.50 1006.73 1006.91 1007.14 1007.33 1007.50 1007.55 1007.43 1007.29
1007.87 1008.70 1009.69 1011.29 1011.77 1011.47 1010.92 1008.64 1007.24 1006.88 1006.64 1006.29 1005.79 1005.17 1004.46 1004.16 1004.01 1003.67 1003.38 1002.32 1001.82 1001.83 1001.99 1002.02 1002.37 1002.84 1003.02 1003.13 1002.49 1002.92 1003.25 1003.66 1004.21 1004.54 1004.62 1004.89 1005.23 1005.34 1005.53 1005.58 1005.85 1006.22 1006.49 1006.59 1006.77 1006.96 1007.17 1007.28 1007.24
Wind_Speed
7 8 1 5 4 4 2 4 2 7 5 7 4 2 5 1 1 3 5 8 14 14 13 14 16 16 14 16 17 19 19 18 19 19 19 18 17 16 16 14 13 14 13 11 10 10 10 10 10
6 5 5 3 5 3 4 4 6 3 2 4 5 3 7 2 2 1 4 7 15 16 13 12 20 17 16 16 16 16 18 18 18 18 18 17 16 16 16 13 12 13 12 11 10 9 9 9 9
6 3 4 4 3 5 4 2 6 13 4 1 2 3 2 1 1 3 2 10 14 13 13 12 18 20 18 16 17 16 16 17 17 17 16 15 15 14 14 13 12 12 11 10 8 8 7 7 7
4 5 4 4 6 6 4 5 3 12 4 7 2 4 3 3 4 1 11 13 12 9 10 15 16 19 19 18 16 16 16 16 16 16 16 14 14 12 11 10 10 10 10 9 8 8 6 6 5
4 3 2 1 6 4 4 6 5 12 2 1 2 2 2 6 3 8 11 12 13 11 8 13 18 18 20 20 18 17 17 16 16 15 15 15 13 12 11 10 10 9 9 8 7 7 6 5 4
4 3 3 4 6 6 5 4 4 5 8 7 3 3 3 2 2 8 9 9 8 11 10 13 15 17 19 20 19 17 16 17 18 17 13 13 12 11 11 10 10 9 8 8 7 7 6 6 5
6 4 4 3 4 6 5 4 3 7 11 14 9 7 3 2 8 12 12 8 8 7 7 11 12 13 16 18 18 16 15 15 17 18 17 14 13 11 11 10 10 10 9 9 8 7 7 6 6
5 5 3 3 3 11 4 5 2 5 11 14 11 6 6 6 6 7 11 10 9 8 7 10 12 12 9 10 17 17 15 15 16 17 18 17 15 14 12 11 10 10 9 10 9 9 8 7 7
4 4 3 5 6 9 4 5 2 5 5 6 3 3 8 10 6 13 12 8 8 8 7 10 12 12 6 7 10 15 16 13 13 12 14 12 7 8 10 10 13 12 11 11 10 9 8 7 7
5 4 8 6 4 8 4 4 7 6 11 7 2 4 6 8 4 12 10 9 9 11 10 10 11 12 8 7 8 7 9 6 5 5 6 5 5 6 7 10 13 12 12 11 10 9 8 8 3
4 6 4 6 9 9 8 6 4 6 11 8 10 4 8 1 6 8 8 13 15 13 11 12 12 13 14 9 7 5 5 6 6 7 5 4 4 4 4 3 3 3 9 4 5 4 3 5 3
3 7 6 8 7 4 9 6 3 7 12 11 9 7 5 7 8 7 8 7 8 12 14 15 14 12 10 7 7 8 7 7 7 7 7 4 3 4 4 3 4 4 3 4 4 2 4 5 5
4 4 4 9 9 8 12 12 13 10 13 10 10 3 3 5 8 8 8 6 6 8 9 13 13 12 11 11 7 6 7 6 7 7 8 7 5 4 4 4 3 4 3 4 3 3 4 5 5
2 4 6 6 7 4 5 10 4 3 8 9 8 10 6 9 9 2 7 8 8 7 10 12 15 14 12 11 13 10 9 7 5 6 8 9 7 6 5 5 5 5 4 4 4 4 4 5 4
3 5 7 3 3 5 3 10 9 4 4 9 10 9 11 8 9 10 10 10 10 8 11 14 15 13 14 13 11 9 7 3 4 7 8 9 8 6 6 5 4 5 4 5 4 4 3 4 3
4 4 2 5 2 7 6 8 7 10 9 11 7 10 10 12 10 11 9 8 10 8 13 14 12 14 13 12 10 9 8 7 3 5 5 10 11 8 5 4 4 4 4 3 3 4 3 4 4
6 4 4 7 6 4 7 7 5 6 5 11 11 8 10 9 11 10 10 9 8 10 10 12 13 15 15 12 9 9 10 11 12 10 6 6 6 7 8 4 5 4 4 3 3 3 3 3 3
4 3 3 5 5 4 7 9 7 8 5 9 9 10 7 10 13 10 10 9 10 10 7 8 7 10 7 5 4 3 3 4 6 7 9 11 8 7 7 0 5 2 3 4 3 4 3 3 3
4 4 9 12 15 5 8 8 10 8 6 8 9 9 8 7 8 8 7 5 3 3 8 8 9 7 5 4 4 2 4 2 2 4 6 7 7 12 9 6 5 2 5 5 4 1 3 2 2
9 11 13 12 13 6 10 10 10 6 5 5 7 8 9 6 8 9 6 5 7 7 8 6 6 8 6 4 3 3 3 2 3 4 6 7 5 4 4 7 5 5 5 4 5 4 1 2 4
8 6 8 13 6 5 4 6 6 5 4 7 7 8 8 10 11 8 8 10 8 9 11 12 10 9 8 7 4 3 2 2 2 2 2 4 6 5 6 8 9 6 5 8 7 4 6 3 3
7 8 10 8 3 8 5 17 5 7 9 6 9 10 11 12 10 8 8 9 13 15 6 8 9 9 7 9 6 6 5 4 2 3 3 1 4 4 8 8 9 9 6 10 4 3 4 4 5
10 8 9 9 6 1 4 6 6 6 7 13 9 11 12 11 9 10 10 14 15 11 13 11 11 8 7 8 7 6 4 4 3 2 4 2 6 6 6 6 7 7 8 7 6 5 6 3 3
2 4 4 4 1 6 8 10 7 7 9 7 7 9 10 8 9 10 14 16 11 11 8 8 9 8 9 9 9 9 8 5 2 2 3 3 2 1 3 4 5 6 6 6 5 5 6 5 5
3 6 4 5 3 12 5 8 8 6 10 11 13 14 10 8 7 6 8 7 10 17 14 10 10 8 8 8 7 7 8 7 6 5 3 3 2 1 2 1 2 4 4 6 9 7 7 7 6
8 8 5 7 6 12 4 7 5 5 10 11 10 9 8 9 7 5 4 2 5 0 0 7 8 7 8 8 9 7 8 5 5 6 5 4 4 4 4 3 3 3 4 5 5 5 5 6 6
2 4 6 4 2 7 5 7 6 4 9 8 12 16 15 10 5 8 7 5 6 7 11 10 8 8 9 10 7 8 7 7 8 8 5 4 5 4 5 5 5 5 4 3 4 4 5 5 8
6 1 3 3 5 8 5 4 6 6 7 8 12 10 11 12 9 5 4 4 5 7 3 4 7 14 12 12 10 9 10 10 8 6 8 7 6 5 5 5 6 5 5 5 4 4 5 5 4
4 2 3 2 4 4 5 6 6 5 5 6 8 9 7 10 11 6 2 4 6 3 6 8 7 8 8 10 10 8 9 10 8 8 8 9 6 8 7 7 6 6 6 6 5 5 6 6 7
6 2 5 4 3 3 3 7 7 8 6 6 11 12 15 11 9 11 9 7 5 6 6 7 10 11 10 10 9 12 11 11 9 10 10 8 9 7 8 7 7 6 6 6 6 6 6 6 8
Wind_Direction
323 310 16 35 54 57 245 240 323 338 17 324 306 144 129 40 238 226 324 166 130 147 155 153 153 145 141 132 133 131 133 132 130 129 130 133 132 130 128 128 131 132 131 134 134 129 127 122 118
320 339 37 74 89 105 267 266 303 232 102 284 312 350 43 32 63 111 122 183 151 149 156 162 154 148 146 138 134 132 132 133 132 132 131 131 130 130 131 136 137 138 139 144 140 137 133 127 123
323 54 70 89 120 187 216 167 307 321 358 294 241 80 29 327 128 220 210 154 145 151 156 167 161 149 147 145 141 138 136 134 134 131 129 130 133 135 138 144 144 144 145 146 146 145 144 141 135
17 2 40 93 227 250 228 322 326 316 30 348 162 44 348 320 283 182 125 137 142 147 160 166 163 153 146 147 146 143 141 138 136 134 131 134 137 138 140 146 148 151 151 155 159 161 165 160 154
30 52 70 255 267 240 272 291 335 320 272 360 47 249 62 330 6 114 133 150 157 154 159 165 164 160 151 151 152 151 149 144 138 137 141 145 147 147 148 155 158 158 160 166 173 181 179 187 199
45 91 76 223 255 289 286 288 330 300 309 150 112 189 181 281 332 162 149 165 158 160 155 164 167 164 159 155 157 157 156 151 145 143 148 150 154 156 160 166 168 169 172 180 190 193 203 211 219
120 89 204 237 268 301 273 332 356 333 334 313 160 165 225 152 272 165 158 131 128 135 146 165 170 167 165 161 158 158 159 159 154 154 153 161 163 169 172 177 180 180 184 192 198 204 217 232 245
112 102 195 235 236 272 278 344 3 332 288 273 165 188 229 184 203 106 130 122 126 135 147 164 173 171 167 169 162 159 166 168 167 166 164 165 173 176 182 187 193 196 200 206 208 211 220 233 250
120 74 222 225 201 260 343 334 2 286 267 291 259 164 219 133 132 93 109 106 121 137 145 166 172 176 174 166 174 165 168 174 176 178 174 170 174 183 189 193 202 205 209 218 221 221 226 238 253
117 148 225 202 225 266 287 283 313 313 312 295 351 311 328 128 166 133 146 155 158 159 160 169 171 175 165 174 183 172 164 160 172 183 196 173 189 182 187 203 210 211 217 225 229 230 233 240 231
169 202 219 246 245 255 275 285 237 287 289 274 292 260 237 232 135 146 169 168 179 175 161 168 168 176 173 180 176 187 184 174 179 190 191 198 175 205 194 198 219 219 232 230 229 226 232 237 228
186 232 219 269 253 281 274 282 272 220 250 268 259 271 194 194 169 169 164 169 155 179 175 169 172 172 168 166 180 188 197 187 183 186 183 185 209 206 212 208 214 214 217 232 211 191 230 248 230
200 259 286 263 273 251 270 265 257 242 244 261 267 7 156 270 193 177 170 160 171 175 170 179 169 177 176 159 171 186 194 200 189 186 191 190 188 219 202 223 221 220 208 217 218 195 225 248 257
243 274 283 298 289 275 278 278 137 250 238 263 278 277 216 202 244 249 155 174 186 170 183 173 183 182 181 176 181 190 185 191 193 190 196 200 197 186 217 215 226 234 209 206 195 208 209 245 216
290 318 330 255 245 260 254 299 275 229 205 249 275 271 273 233 208 217 200 185 181 189 172 177 183 187 188 186 186 184 189 156 246 211 188 193 202 199 200 223 215 238 223 217 186 206 200 248 244
8 73 318 268 248 256 180 262 293 303 326 304 260 245 254 263 216 224 217 230 189 169 180 175 179 186 188 195 189 189 171 150 178 271 265 206 190 201 185 226 231 225 246 214 195 213 216 222 234
357 255 264 307 200 238 194 272 253 311 331 299 305 260 241 256 284 264 235 224 203 195 179 180 183 187 189 195 190 189 175 173 206 170 198 229 225 195 214 197 237 196 249 225 225 234 214 211 225
235 244 283 257 277 216 269 268 269 274 297 285 300 296 214 239 251 260 267 227 211 207 196 181 173 179 174 163 129 113 168 161 181 199 197 171 209 178 199 180 287 217 251 248 207 224 227 230 221
243 224 250 268 271 238 242 270 275 281 300 306 307 296 288 280 277 291 260 229 259 216 176 177 158 164 148 136 131 126 196 182 147 188 177 195 192 161 165 170 233 228 242 232 238 215 251 281 244
227 247 265 276 261 202 268 271 264 250 240 242 278 291 269 266 284 282 250 236 211 207 199 193 183 160 152 133 146 148 153 197 189 183 209 211 222 206 151 143 165 196 247 278 245 174 208 244 211
251 218 256 245 264 266 280 280 264 278 252 264 262 252 272 258 270 256 235 221 233 223 199 190 182 171 160 148 123 97 94 105 123 219 207 200 190 223 228 248 209 179 215 252 247 191 185 232 258
259 211 235 246 217 255 164 275 239 254 262 238 264 271 260 261 267 269 243 225 207 227 185 170 169 167 166 156 152 159 165 172 223 168 152 220 171 201 224 237 230 205 207 222 219 204 206 148 235
236 239 231 248 235 131 258 288 262 195 264 269 250 253 264 259 251 260 253 234 215 196 186 179 164 158 155 151 152 153 167 168 173 234 298 256 167 184 213 219 207 205 216 206 182 175 222 197 222
300 313 329 37 108 249 246 234 241 231 233 258 259 266 252 267 278 263 265 249 202 176 167 170 161 165 164 155 154 159 174 185 190 217 237 260 287 287 184 221 239 246 219 196 191 175 194 210 229
149 69 318 312 296 272 245 264 257 246 264 250 250 264 264 256 261 311 307 234 184 172 173 177 163 164 177 159 156 168 186 188 207 220 222 258 288 288 250 231 256 261 258 243 189 192 199 207 228
221 166 185 257 246 278 311 252 250 234 262 272 288 268 249 244 208 151 139 169 163 94 357 158 160 161 176 170 182 187 194 192 199 208 203 213 213 233 256 272 262 267 259 270 288 298 241 190 218
239 212 212 268 269 298 230 300 313 317 328 357 347 357 315 239 241 161 140 159 149 179 187 193 184 199 190 193 185 194 190 188 202 214 206 220 216 220 222 234 261 282 280 258 268 257 234 194 205
200 181 353 357 287 261 245 248 231 343 342 338 342 340 334 329 324 68 121 179 188 179 223 312 242 193 194 198 197 193 197 200 211 181 206 208 226 232 231 211 211 240 269 276 271 276 280 279 256
267 123 94 314 180 261 279 255 205 233 266 325 321 317 319 300 301 300 357 167 150 182 187 197 230 269 224 205 201 190 200 201 202 200 206 208 202 209 215 219 218 214 215 233 242 253 272 275 275
259 225 173 196 215 237 288 259 274 302 297 340 308 312 312 308 292 287 272 217 187 180 194 201 213 225 244 258 211 200 204 201 201 209 214 206 211 203 217 213 201 209 220 228 216 227 239 245 259